Regional Weather Roundup
Issued by NWS

Home | Current Version | Previous Version | Graphics & Text | Print | Product List | Glossary Off
Versions: 1 2 3 4 5 6 7 8 9 10 11 12 13 14 15 16 17 18 19 20 21 22 23 24 25 26 27 28 29 30 31 32 33 34 35 36 37 38 39 40 41 42 43 44 45 46 47 48 49 50

000
ASUS43 KDMX 031706
RWRIA

WEATHER ROUNDUP FOR IOWA
NATIONAL WEATHER SERVICE DES MOINES IA
1100 AM CST SAT DEC 03 2016

NOTE: "FAIR" INDICATES FEW OR NO CLOUDS BELOW 12,000 FEET WITH NO
SIGNIFICANT WEATHER AND/OR OBSTRUCTIONS TO VISIBILITY.

* - THESE STATIONS ARE NOT NWS STATIONS...THUS NOT UNDER NWS
QUALITY CONTROL.  THEY ALSO DO NOT REPORT WEATHER SUCH
AS PRECIPITATION OR FOG.

IAZ001>003-012>014-020>022-031>034-043>046-031800-
   NORTHWEST IOWA

CITY           SKY/WX    TMP DP  RH WIND       PRES   REMARKS
CARROLL *      SUNNY     37  32  81 S12       30.27F WCI  30
CHEROKEE *     MOSUNNY   35  31  85 S9        30.26S WCI  28
DENISON *      CLOUDY    37  30  75 S13       30.25F WCI  29
LE MARS *      MOSUNNY   34  30  86 S12       30.24F WCI  25
ORANGE CITY *  CLOUDY    34  30  86 S8        30.22F WCI  27
SHELDON *      CLOUDY    34  34 100 S10       30.21F WCI  26
SIOUX CITY     CLOUDY    34  30  85 S12       30.26R WCI  25
SPENCER        SUNNY     35  29  78 S15       30.24F WCI  25
STORM LAKE *   SUNNY     36  30  80 S13       30.25S WCI  27
$$

IAZ055>058-069>071-079>083-090>094-031800-
   SOUTHWEST IOWA

CITY           SKY/WX    TMP DP  RH WIND       PRES   REMARKS
ATLANTIC *     CLOUDY    37  32  81 SE9       30.29S WCI  31
AUDUBON *      MOSUNNY   36  30  80 S6        30.29S WCI  31
CLARINDA *       N/A     36  34  93 SE6       30.33S WCI  31
COUNCIL BLFS * MOSUNNY   32  30  93 S10       30.29S WCI  24
CRESTON *      CLOUDY    36  32  87 SE13      30.31F WCI  27
HARLAN  *      CLOUDY    36  32  87 S9        30.32R WCI  29
LAMONI         MOSUNNY   34  31  88 E5        30.31S WCI  30
RED OAK *      CLOUDY    36  30  80 SE9       30.31S WCI  29
SHENANDOAH *   CLOUDY    36  32  87 SE8       30.32S WCI  29
$$

IAZ047>049-059>061-072>074-084-031800-
   CENTRAL IOWA

CITY           SKY/WX    TMP DP  RH WIND       PRES   REMARKS
AMES           PTSUNNY   38  30  73 SE7       30.31R WCI  33
ANKENY *       MOSUNNY   39  32  75 VRB6      30.33S WCI  35
BOONE *        MOSUNNY   37  28  70 SE8       30.29S WCI  31
CHARITON *       N/A     37  32  81 SE12      30.32F WCI  30
DES MOINES     PTSUNNY   41  29  62 SE6       30.32S
GRINNELL*      CLOUDY    38  29  70 CALM      30.33S
KNOXVILLE *    CLOUDY    37  28  70 S6        30.32S WCI  33
MARSHALLTOWN   CLOUDY    37  27  67 CALM      30.31S
NEWTON *       CLOUDY    37  28  70 S5        30.31F WCI  34
PELLA *        PTSUNNY   39  31  72 S3        30.34F
PERRY *          N/A     38  33  84 SE9       30.30S WCI  31
$$

IAZ004>006-015-016-023>025-035-036-031800-
   NORTH CENTRAL IOWA

CITY           SKY/WX    TMP DP  RH WIND       PRES   REMARKS
ALGONA *       SUNNY     36  28  75 SE5       30.27R WCI  32
CLARION *      MOSUNNY   37  28  70 W3        30.28S
ESTHERVILLE    SUNNY     31  26  82 SE7       30.24F WCI  24
FORT DODGE *   SUNNY     39  27  60 S7        30.29S WCI  34
MASON CITY     SUNNY     33  24  69 NE7       30.28F WCI  27
FOREST CITY *    N/A     36  27  69 NE3       30.27S
WEBSTER CITY * MOSUNNY   39  28  65 S6        30.27S WCI  35
IOWA FALLS *     N/A     39  28  64 CALM      30.31R
$$

IAZ007>011-017>019-026>030-037>042-050>054-066-031800-
   NORTHEAST IOWA

CITY           SKY/WX    TMP DP  RH WIND       PRES   REMARKS
CEDAR RAPIDS   CLOUDY    36  30  79 S9        30.33R WCI  29
CHARLES CITY * MOSUNNY   34  25  69 VRB6      30.29S WCI  29
CLINTON *      CLOUDY    35  24  64 CALM      30.35S
DECORAH *      CLOUDY    32  25  74 VRB5      30.27F WCI  27
DUBUQUE        CLOUDY    32  24  72 S6        30.32R WCI  26
MONTICELLO *   CLOUDY    34  25  69 S8        30.34R WCI  27
OELWEIN *      PTSUNNY   34  27  75 VRB5      30.31R WCI  30
WATERLOO       CLOUDY    36  26  67 SW6       30.31R WCI  31
$$

IAZ064-065-067-068-078-031800-
   EAST CENTRAL IOWA

CITY           SKY/WX    TMP DP  RH WIND       PRES   REMARKS
DAVENPORT      CLOUDY    36  25  64 SE3       30.36S
IOWA CITY      CLOUDY    38  28  67 S6        30.36F WCI  33
MUSCATINE *    CLOUDY    37  25  60 CALM      30.38R
QUAD CITIES    CLOUDY    37  24  59 W6        30.36F WCI  32
$$

IAZ062-063-075>077-085>089-095>099-031800-
   SOUTHEAST IOWA

CITY           SKY/WX    TMP DP  RH WIND       PRES   REMARKS
BURLINGTON     CLOUDY    36  28  73 E3        30.38R
FAIRFIELD *    CLOUDY    37  28  70 SE9       30.36R WCI  31
FORT MADISON * CLOUDY    37  28  70 E3        30.39R
KEOKUK *       CLOUDY    37  28  70 E9        30.37F WCI  31
OSKALOOSA *    CLOUDY    37  29  70 S6        30.35S WCI  33
CENTERVILLE *    N/A     36  32  87 SE8       30.35F WCI  29
OTTUMWA        CLOUDY    38  29  70 SE7       30.35S WCI  33
WASHINGTON *   CLOUDY    37  28  70 CALM      30.37S
$$

ABBREVIATIONS USED IN REMARKS
   TC - TEMPERATURES IN CELSIUS
  WCI - WIND CHILL INDEX
   HX - HEAT INDEX
  VSB - VISIBILITY
$$





USA.gov is the U.S. government's official web portal to all federal, state and local government web resources and services.